Gillette, WY

6:57 PM MST on December 02, 2016 (GMT -0700)
Gillette-Campbell County

Weather History for KGCC - August, 2013

Change the Weather History Date:

Sunday, August 25, 2013

  Actual Average Record
Temperature  
Mean Temperature 73 °F 68 °F  
Max Temperature 91 °F 84 °F 98 °F (1956)
Min Temperature 55 °F 51 °F 33 °F (1964)
Degree Days  
Heating Degree Days 0 2  
Month to date heating degree days 0 24  
Since 1 June heating degree days 117 185  
Since 1 July heating degree days 0 43  
Cooling Degree Days 8 4  
Month to date cooling degree days 182 156  
Year to date cooling degree days 454 438  
Since 1 June cooling degree days 446 430  
Growing Degree Days 22 (Base 50)    
Moisture  
Dew Point 49 °F    
Average Humidity 53    
Maximum Humidity 86    
Minimum Humidity 19    
Precipitation  
Precipitation 0.00 in 0.02 in 0.83 in (1946)
Month to date precipitation 0.99 0.78  
Year to date precipitation 13.43 10.31  
Sea Level Pressure  
Sea Level Pressure 29.91 in    
Wind  
Wind Speed 8 mph (South)    
Max Wind Speed 18 mph    
Max Gust Speed 23 mph    
Visibility 10 miles    
Events      
T = Trace of Precipitation, MM = Missing Value Source: NWS Daily Summary

Daily Weather History Graph

Daily Weather History Graph

Search for Another Location

Airport or City:

Trip Planner

Search our weather history database for the weather conditions in past years. The results will help you decide how hot, cold, wet, or windy it might be!

Date:

Astronomy

Aug. 25, 2013 Rise Set
Actual Time 6:17 AM MDT 7:50 PM MDT
Civil Twilight 5:46 AM MDT 8:20 PM MDT
Nautical Twilight 5:09 AM MDT 8:57 PM MDT
Astronomical Twilight 4:30 AM MDT 9:36 PM MDT
Moon 10:08 PM MDT (8/25) 11:35 AM MDT (8/25)
Length of Visible Light 14h 33m
Length of Day
13h 32m
Waning Gibbous, 75% of the Moon is Illuminated
Aug 25
Waning Gibbous
Aug 28
Last Quarter
Sep 5
New
Sep 12
First Quarter
Sep 19
Full

Hourly Weather History & Observations

Time (MDT) Temp. Dew Point Humidity Pressure Visibility Wind Dir Wind Speed Gust Speed Precip Events Conditions
12:53 AM 63.0 °F 54.0 °F 72% 29.89 in 10.0 mi South 5.8 mph - N/A   Clear
1:53 AM 62.1 °F 53.1 °F 72% 29.89 in 10.0 mi NNE 3.5 mph - N/A   Clear
2:53 AM 57.9 °F 52.0 °F 81% 29.90 in 10.0 mi SSW 3.5 mph - N/A   Clear
3:53 AM 57.0 °F 52.0 °F 83% 29.91 in 10.0 mi South 5.8 mph - N/A   Clear
4:53 AM 57.0 °F 52.0 °F 83% 29.91 in 10.0 mi Calm Calm - N/A   Clear
5:53 AM 57.0 °F 53.1 °F 87% 29.93 in 10.0 mi Calm Calm - N/A   Clear
6:53 AM 55.9 °F 52.0 °F 87% 29.94 in 10.0 mi Calm Calm - N/A   Clear
7:53 AM 66.0 °F 55.9 °F 70% 29.94 in 10.0 mi Calm Calm - N/A   Scattered Clouds
8:53 AM 73.0 °F 54.0 °F 51% 29.96 in 10.0 mi SSW 5.8 mph - N/A   Clear
9:53 AM 73.9 °F 53.1 °F 48% 29.96 in 10.0 mi South 5.8 mph - N/A   Partly Cloudy
10:53 AM 78.1 °F 52.0 °F 40% 29.97 in 10.0 mi South 6.9 mph - N/A   Mostly Cloudy
11:53 AM 84.9 °F 48.0 °F 28% 29.93 in 10.0 mi Calm Calm - N/A   Clear
12:53 PM 84.9 °F 43.0 °F 23% 29.92 in 10.0 mi Calm Calm - N/A   Mostly Cloudy
1:53 PM 89.1 °F 43.0 °F 20% 29.91 in 10.0 mi South 11.5 mph 18.4 mph N/A   Mostly Cloudy
2:53 PM 90.0 °F 43.0 °F 19% 29.89 in 10.0 mi SW 6.9 mph - N/A   Mostly Cloudy
3:53 PM 89.1 °F 44.1 °F 21% 29.89 in 10.0 mi South 15.0 mph - N/A   Partly Cloudy
4:53 PM 88.0 °F 44.1 °F 22% 29.88 in 10.0 mi South 16.1 mph - N/A   Partly Cloudy
5:53 PM 87.1 °F 45.0 °F 23% 29.88 in 10.0 mi SSE 12.7 mph - N/A   Clear
6:53 PM 84.9 °F 46.0 °F 26% 29.88 in 10.0 mi South 13.8 mph - N/A   Clear
7:53 PM 80.1 °F 46.0 °F 30% 29.88 in 10.0 mi South 9.2 mph - N/A   Clear
8:53 PM 80.1 °F 46.0 °F 30% 29.87 in 10.0 mi South 12.7 mph - N/A   Clear
9:53 PM 78.1 °F 46.9 °F 33% 29.88 in 10.0 mi South 11.5 mph - N/A   Clear
10:53 PM 77.0 °F 46.0 °F 33% 29.87 in 10.0 mi South 13.8 mph - N/A   Clear
11:53 PM 79.0 °F 46.0 °F 31% 29.85 in 10.0 mi SSW 16.1 mph - N/A   Clear